Weather History for Salmon, ID

Change the Weather History Date:

Monday, December 23, 2013

  Actual Average Record
Temperature  
Mean Temperature 32 °F -  
Max Temperature 41 °F 24 °F 49 °F (1972)
Min Temperature 24 °F 10 °F -29 °F (1983)
Degree Days  
Heating Degree Days 32    
Moisture  
Dew Point 26 °F    
Average Humidity 89    
Maximum Humidity 100    
Minimum Humidity 53    
Precipitation  
Precipitation 0.17 in - - ()
Sea Level Pressure  
Sea Level Pressure 30.17 in    
Wind  
Wind Speed 2 mph (NNW)    
Max Wind Speed 20 mph    
Max Gust Speed 37 mph    
Visibility 8 miles    
Events      
Averages and records for this station are not official NWS values.
T = Trace of Precipitation, MM = Missing Value Source: NWS Daily Summary

Daily Weather History Graph

Daily Weather History Graph

Search for Another Location

Airport:

Trip Planner

Search our weather history database for the weather conditions in past years. The results will help you decide how hot, cold, wet, or windy it might be!

Date:

Astronomy

Dec. 23, 2013 Rise Set
Actual Time 8:12 AM MST 4:57 PM MST
Civil Twilight 7:38 AM MST 5:31 PM MST
Nautical Twilight 7:00 AM MST 6:08 PM MST
Astronomical Twilight 6:25 AM MST 6:44 PM MST
Moon 11:27 PM MST 11:24 AM MST
Length of Visible Light 9h 53m
Length of Day
8h 45m
Waning Gibbous, 67% of the Moon is Illuminated
Dec 23
Waning Gibbous
Dec 25
Last Quarter
Jan 1
New
Jan 7
First Quarter
Jan 15
Full

Hourly Weather History & Observations

Time (MST) Temp. Windchill Dew Point Humidity Pressure Visibility Wind Dir Wind Speed Gust Speed Precip Events Conditions
12:15 AM 26.6 °F - 24.8 °F 93% 30.25 in 10.0 mi Calm Calm - N/A   Overcast
12:35 AM 28.4 °F - 24.8 °F 86% 30.25 in 10.0 mi Calm Calm - N/A   Overcast
12:55 AM 28.4 °F - 24.8 °F 86% 30.25 in 10.0 mi Calm Calm - N/A   Overcast
1:15 AM 28.4 °F - 24.8 °F 86% 30.25 in 10.0 mi Calm Calm - N/A   Overcast
1:35 AM 26.6 °F 22.6 °F 24.8 °F 93% 30.26 in 10.0 mi NNW 3.5 mph - N/A   Overcast
1:55 AM 26.6 °F 22.6 °F 24.8 °F 93% 30.26 in 8.0 mi NW 3.5 mph - N/A   Overcast
2:15 AM 26.6 °F 22.6 °F 24.8 °F 93% 30.26 in 8.0 mi South 3.5 mph - N/A   Overcast
2:35 AM 28.4 °F 24.6 °F 24.8 °F 86% 30.27 in 10.0 mi South 3.5 mph - N/A   Overcast
2:55 AM 28.4 °F 24.6 °F 24.8 °F 86% 30.27 in 10.0 mi SE 3.5 mph - N/A   Overcast
3:15 AM 28.4 °F - 24.8 °F 86% 30.27 in 10.0 mi Calm Calm - N/A   Overcast
3:35 AM 28.4 °F - 24.8 °F 86% 30.27 in 10.0 mi Calm Calm - N/A   Overcast
3:55 AM 28.4 °F - 24.8 °F 86% 30.26 in 10.0 mi Calm Calm - N/A   Overcast
4:15 AM 28.4 °F 24.6 °F 24.8 °F 86% 30.26 in 10.0 mi South 3.5 mph - N/A   Overcast
4:35 AM 26.6 °F - 24.8 °F 93% 30.26 in 10.0 mi Calm Calm - N/A   Overcast
4:55 AM 26.6 °F - 24.8 °F 93% 30.26 in 10.0 mi Calm Calm - N/A   Overcast
5:15 AM 26.6 °F - 24.8 °F 93% 30.25 in 10.0 mi Calm Calm - N/A   Overcast
5:35 AM 26.6 °F - 24.8 °F 93% 30.25 in 10.0 mi Calm Calm - N/A   Overcast
5:55 AM 26.6 °F 22.6 °F 23.0 °F 86% 30.25 in 10.0 mi SE 3.5 mph - N/A   Overcast
6:15 AM 26.6 °F 22.6 °F 24.8 °F 93% 30.25 in 10.0 mi SSE 3.5 mph - N/A   Overcast
6:35 AM 26.6 °F - 24.8 °F 93% 30.24 in 10.0 mi Calm Calm - N/A   Overcast
6:55 AM 26.6 °F - 24.8 °F 93% 30.24 in 10.0 mi Calm Calm - N/A   Overcast
7:15 AM 26.6 °F - 24.8 °F 93% 30.24 in 10.0 mi Calm Calm - N/A   Overcast
7:35 AM 26.6 °F - 23.0 °F 86% 30.24 in 10.0 mi Calm Calm - N/A   Overcast
7:55 AM 26.6 °F - 24.8 °F 93% 30.24 in 10.0 mi Calm Calm - N/A   Overcast
8:15 AM 26.6 °F - 24.8 °F 93% 30.24 in 10.0 mi Calm Calm - N/A   Overcast
8:35 AM 26.6 °F - 24.8 °F 93% 30.24 in 9.0 mi Calm Calm - N/A   Overcast
8:55 AM 26.6 °F - 24.8 °F 93% 30.23 in 9.0 mi Calm Calm - N/A   Overcast
9:15 AM 26.6 °F - 24.8 °F 93% 30.24 in 9.0 mi Calm Calm - N/A   Overcast
9:35 AM 26.6 °F - 24.8 °F 93% 30.23 in 9.0 mi Calm Calm - N/A   Overcast
9:55 AM 28.4 °F - 26.6 °F 93% 30.23 in 9.0 mi Calm Calm - N/A   Overcast
10:15 AM 28.4 °F - 24.8 °F 86% 30.23 in 10.0 mi Calm Calm - N/A   Overcast
10:35 AM 30.2 °F - 24.8 °F 80% 30.23 in 10.0 mi Calm Calm - N/A   Overcast
10:55 AM 30.2 °F - 24.8 °F 80% 30.24 in 10.0 mi Calm Calm - N/A   Overcast
11:15 AM 30.2 °F - 26.6 °F 86% 30.23 in 10.0 mi Calm Calm - N/A   Overcast
11:35 AM 30.2 °F - 26.6 °F 86% 30.22 in 10.0 mi Calm Calm - N/A   Overcast
11:55 AM 30.2 °F - 26.6 °F 86% 30.22 in 10.0 mi Calm Calm - N/A   Overcast
12:15 PM 30.2 °F 26.7 °F 26.6 °F 86% 30.21 in 9.0 mi NW 3.5 mph - N/A   Overcast
12:35 PM 30.2 °F 26.7 °F 26.6 °F 86% 30.21 in 7.0 mi North 3.5 mph - N/A   Overcast
12:55 PM 30.2 °F - 26.6 °F 86% 30.20 in 5.0 mi Calm Calm - N/A   Overcast
1:15 PM 30.2 °F 26.7 °F 26.6 °F 86% 30.19 in 9.0 mi North 3.5 mph - N/A   Overcast
1:35 PM 30.2 °F - 28.4 °F 93% 30.19 in 3.0 mi Calm Calm - N/A   Overcast
1:55 PM 30.2 °F - 28.4 °F 93% 30.18 in 4.0 mi Calm Calm - N/A   Overcast
2:15 PM 30.2 °F - 28.4 °F 93% 30.17 in 5.0 mi Calm Calm - N/A   Overcast
2:35 PM 30.2 °F - 30.2 °F 100% 30.16 in 9.0 mi Calm Calm - N/A   Overcast
2:55 PM 30.2 °F - 28.4 °F 93% 30.16 in 10.0 mi Calm Calm - N/A   Overcast
3:15 PM 30.2 °F 26.7 °F 28.4 °F 93% 30.15 in 10.0 mi North 3.5 mph - N/A   Overcast
3:35 PM 32.0 °F - 28.4 °F 87% 30.15 in 9.0 mi Calm Calm - 0.01 in   Overcast
3:55 PM 32.0 °F - 30.2 °F 93% 30.15 in 10.0 mi Calm Calm - 0.03 in   Overcast
4:15 PM 32.0 °F 28.7 °F 30.2 °F 93% 30.14 in 10.0 mi SSW 3.5 mph - 0.01 in   Overcast
4:35 PM 32.0 °F - 30.2 °F 93% 30.14 in 10.0 mi Calm Calm - 0.02 in   Overcast
4:55 PM 30.2 °F - 28.4 °F 93% 30.13 in 9.0 mi Calm Calm - 0.02 in   Overcast
5:15 PM 30.2 °F 26.7 °F 28.4 °F 93% 30.12 in 7.0 mi SSW 3.5 mph - N/A   Overcast
5:35 PM 28.4 °F - 28.4 °F 100% 30.11 in 8.0 mi Calm Calm - N/A   Overcast
5:55 PM 28.4 °F - 26.6 °F 93% 30.10 in 8.0 mi Calm Calm - N/A   Overcast
6:15 PM 28.4 °F - 28.4 °F 100% 30.08 in 9.0 mi Calm Calm - N/A   Mostly Cloudy
6:35 PM 26.6 °F - 26.6 °F 100% 30.06 in 5.0 mi Calm Calm - N/A   Clear
6:55 PM 24.8 °F 17.9 °F 23.0 °F 93% 30.05 in 0.8 mi North 5.8 mph - N/A   Mostly Cloudy
7:15 PM 24.8 °F 20.5 °F 21.2 °F 86% 30.01 in 1.8 mi South 3.5 mph - 0.01 in   Mostly Cloudy
7:35 PM 24.8 °F - 24.8 °F 100% 29.99 in 1.2 mi Calm Calm - 0.01 in   Mostly Cloudy
7:55 PM 26.6 °F - 23.0 °F 86% 29.96 in 1.2 mi Calm Calm - 0.01 in   Mostly Cloudy
8:15 PM 26.6 °F 17.5 °F 24.8 °F 93% 29.97 in 1.8 mi North 9.2 mph 16.1 mph N/A   Scattered Clouds
8:35 PM 26.6 °F 19.1 °F 24.8 °F 93% 29.97 in 5.0 mi North 6.9 mph - N/A   Mostly Cloudy
8:55 PM 28.4 °F 19.7 °F 26.6 °F 93% 29.98 in 8.0 mi North 9.2 mph - N/A   Overcast
9:15 PM 32.0 °F 26.4 °F 30.2 °F 93% 29.98 in 10.0 mi NNW 5.8 mph - N/A   Overcast
9:35 PM 33.8 °F 28.6 °F 30.2 °F 87% 29.98 in 10.0 mi NNE 5.8 mph - N/A   Overcast
9:55 PM 35.6 °F 24.8 °F 33.8 °F 93% 30.00 in 10.0 mi North 19.6 mph 32.2 mph N/A   Overcast
10:15 PM 37.4 °F 27.5 °F 33.8 °F 87% 30.05 in 5.0 mi WNW 18.4 mph 29.9 mph 0.08 in   Overcast
10:35 PM 39.2 °F 33.0 °F 30.2 °F 70% 30.05 in 10.0 mi North 9.2 mph 31.1 mph 0.09 in   Overcast
10:55 PM 37.4 °F 29.3 °F 32.0 °F 81% 30.07 in 10.0 mi SSE 12.7 mph - 0.09 in   Mostly Cloudy
11:15 PM 41.0 °F 31.9 °F 24.8 °F 53% 30.07 in 10.0 mi North 19.6 mph 36.8 mph 0.01 in   Overcast
11:35 PM 39.2 °F 29.8 °F 26.6 °F 61% 30.11 in 10.0 mi NE 18.4 mph 21.9 mph 0.01 in   Mostly Cloudy
11:55 PM 37.4 °F 27.5 °F 28.4 °F 70% 30.12 in 10.0 mi NNW 18.4 mph 28.8 mph 0.02 in   Overcast